Hlavní strana
METAR-TAF:

METAR-TAF

Letiště :

Džerba, Tunisko

zeměpisná šířka: 33-52N, zeměpisná délka: 010-46E, výška: 3 m

Aktuální stav počasí

Zpráva byla vytvořena před 31 minutami, v 12:00 UTC
Východoseverovýchodní vítr 13 kt, proměnlivý mezi severoseverovýchodním a východním
Teplota 18°C
Vlhkost vzduchu 56%
Tlak 1025 hPa
Viditelnost: 8000 m
Skoro jasno ve výšce 2000 ft

METAR: DTTJ 011200Z 06013KT 030V090 8000 FEW020 18/09 Q1025 NOSIG

Čas: 13:31 (12:31 UTC)

Předpověď počasí

Zpráva byla vytvořena před 1 hodinou a 31 minutami, v 11:00 UTC
Předpověď platná od 01 v 12 UTC do 02 v 12 UTC
Východoseverovýchodní vítr 14 kt
Viditelnost: 8000 m
Skoro jasno ve výšce 2000 ft
Změna
od 01 v 20 UTC do 01 v 22 UTC
Východoseverovýchodní vítr 5 kt
Změna
od 02 v 06 UTC do 02 v 08 UTC
Východní vítr 16 kt

TAF: DTTJ 011100Z 0112/0212 07014KT 8000 FEW020 BECMG 0120/0122 07005KT BECMG 0206/0208 09016KT

Stav a předpovědi počasí z více než 4 000 letišť (zprávy METAR a TAF).

Červené a žluté tečky na mapě představují dostupné meteorologické stanice.

Když kurzor umístíte na tečku, zobrazí se název stanice.

Pak kliknutím zobrazíte stav a předpověď počasí.

Chcete-li změnit mapu, kliknutím na zelené tlačítko se znaménkem +mapu přiblížíte, kliknutím na zelené tlačítko se znaménkem – mapu oddálíte a kliknutím na zelené šipky přejdete na sousední mapy.


METAR-TAF: